LEMUR 2 NANAZ

导读 | 星芒AI

LEMUR 2 NANAZ 是一颗小型卫星,属于立方星(CubeSat)类别,主要用于教育和科研目的。该卫星由纳米技术与先进应用研究(NANAZ)团队设计和开发,旨在测试新型纳米材料在太空环境中的性能。LEMUR 2 系列卫星由美国公司 Spire Global 运营,主要用于气象观测和船舶跟踪。LEMUR 2 NANAZ 结合了教育与技术验证目标,展示了高校与企业合作在航天领域的潜力。

基本信息
目录编号:
58697
目录名称:
LEMUR 2 NANAZ
国际标识:
2023-174DG
轨道中心:
EARTH
卫星名称:
LEMUR 2 NANAZ
卫星全名:
--
卫星状态:
已陨落 最后检测时间 2025-03-08
发射日期:
2023-11-11 UTC
国别 :
英国 (GB)
星等 :
--
轨道信息
数据来源 国际轨道数据
星历时间: 2025-03-02T00:46:06+0800
轨道信息已过期289天
半长轴: 6587.763km
偏心率: 0.0006867
轨道倾角: 97.168°
近地点辐角 264.293°
升交点赤经 140.512°
平近点角 95.758°
近地点: 205.104km
远地点: 214.152km
周期: 88.688分钟
每日圈数: 16.236628
详细信息
使用方式:
暂无